Location: Boneville
(33.4331°N, 82.4399°W)
Time: 08:12:32
(UTC+00:00)

Tiangong - Pass Details

Date: 13 December 2021
Orbit: 381 x 387 km, 41.5° (Epoch: 27 January)

Event Time Altitude Azimuth Distance (km) Brightness Sun altitude
Rises 00:13:00 0° 294° (WNW) 2,283 5.8 -22.3°
Reaches altitude 10° 00:15:30 10° 313° (NW) 1,425 4.3 -22.8°
Enters shadow 00:16:26 15° 327° (NNW) 1,184 3.7 -23.0°
